STARLINK-35224, 65811

Orbit data source: Space-Track

STARLINK-35224, 65811 is a payload satellite owned by SpaceX/Seattle (US) in SSO that was launched on Fri, 26 Sep 2025 UTC via an FALCON 9 launch vehicle from the Air Force Western Test Range (AFWTR). Payload-class satellites include a variety of spacecraft equipped with specific instruments for various scientific and technological missions. These include communications satellites like Starlink; space stations such as the ISS; scientific satellites like the Hubble; Earth observation satellites from companies like Planet Labs, Umbra, and HawkEye 360; GPS; miniature CubeSats for education and research; and military/defense satellites.

Loading next visibility...
Identifier
65811, 2025-218W
Orbit
SSO
Country
Flag of USUS
Related business
Manufacturer
SpaceX/Seattle
Mission
Operational Commercial Communications
Bus & Motor
STARLINK V2MO, Unknown motor
Mass
575 kg wet, ~530 kg dry
Launch date (UTC)
2025-09-26 (5 months ago)
Launch vehicle
FALCON 9
Launch site
Air Force Western Test Range (AFWTR)
Object type
Payload
Rocket body
Debris
Shape & HBR
Box + 2 Pan, 17.7 m
Radar Cross Section
36.964 m²

Expand to show TLE details & history
Last TLE update: 8 hours ago

TLE from 8 hours ago
0 STARLINK-35224
1 65811U 25218W   26062.51952251  .00005893  00000-0  41217-3 0  9998
2 65811  97.6007 286.9088 0002072  78.0513 282.0946 15.05657903 24040
Epoch: 2026-03-03T12:28Z
TLE epoch observation values (Epoch: 2026-03-03T12:28:06.744Z)
Latitude
-0.00005°
Longitude
-61.41671°
Altitude
552.252 km
Speed
7.586 km/s
True Right ascension
19h 07m 38s
True Declination
0° 00' 00"
Sunlit
Object was in daylight at epoch
Visualization orbit readout
Latitude
Unknown
Longitude
Unknown
Altitude
Unknown
Speed
Unknown
Apparent Right ascension
Unknown
Apparent Declination
Unknown
Sunlit
N/A
Visualization observer readout
Local Sidereal Time
00:36:10
Azimuth
Unknown
Elevation
Unknown
Doppler factor
Unknown
Orbital elements
Apogee altitude
547.915 km
Perigee altitude
545.046 km
Semi-major axis
6,924.617 km
Eccentricity
0.00021
Inclination
97.6007°
RAAN
286.9088°
Arg. of periapsis
78.0513°
True anomaly
282.07138°
Mean anomaly
282.0946°
Eccentric anomaly
282.08299°
Mean motion
3.7666 °/min
Orbital period
95.58 mins
BSTAR
0.00041217
Loading maneuver chart data...
Computing Atmospheric mass density...
Loading historical data...
Loading historical data...
Loading historical data...
Loading historical data...
Loading historical data...
Loading historical data...
Loading historical data...

Documentation

Showing up to 5 results
|